sat.trackr.live / text

‹ back to catalog

STARLINK-11320 [DTC]

NORAD 61942 · 2024-209D

PAYLOAD ACTIVE UNKNOWN

§ Identity

Operator
Country
US
Launch date
2024-11-14
Launch site
AFWTR
Launch vehicle
Mass (kg)
RCS (m²)

Purposes: comms

External: N2YO · Heavens-Above · Gunter

§ Orbital elements

Epoch: 2026-09-21T22:06:15.945696Z

Period
91.74 min
Inclination
53.1564°
Eccentricity
0.0001648
Mean motion
15.69725279 rev/d
Perigee alt
358.6 km
Apogee alt
360.8 km
Semi-major
6,737.8 km
B*
9.6973e-4
RAAN
124.2535°
Arg perigee
32.1754°
Mean anomaly
327.9364°
Rev number
10,749

§ Raw data

STARLINK-11320 [DTC]1 61942U 24209D   26264.92101789  .00118663  00000+0  96973-3 0  99972 61942  53.1564 124.2535 0001648  32.1754 327.9364 15.69725279107499

JSON: /api/v1/satellites/61942 · /tle

For live sub-satellite position, see the globe view (requires WebGL).

§ Visibility from observer

Set your observer location to see the next 7 days of passes ≥ 10°. The values pass through the URL so the page stays shareable.

No JS? Fill the form by hand. The geolocation button needs JavaScript.